Probability
0 0 0 1 1 2 3 3 3 2 1 0 0 0 0 0 1 2 2 1 0 0 0 0 1 2 3 4 4 4 5 6 6 5 4 4 6 5 2 0 0 1 1
0 0 0 1 1 1 2 2 2 1 1 0 0 0 0 0 0 1 1 0 0 0 0 0 0 1 3 4 4 4 4 5 6 5 4 4 5 4 2 1 0 0 1
0 0 0 0 0 0 1 1 0 0 0 0 0 0 0 0 0 0 0 0 0 0 0 0 0 0 1 3 4 3 3 4 5 5 5 3 3 3 3 2 1 0 0
0 0 0 0 0 0 0 0 0 0 0 0 0 0 0 0 0 0 0 0 0 0 0 0 0 0 0 2 4 4 3 3 3 3 4 3 1 2 3 2 1 0 0
0 0 0 0 0 0 0 0 0 0 0 0 0 0 0 0 0 0 0 0 0 0 0 0 0 0 0 1 3 4 3 1 1 1 2 2 1 1 3 3 1 0 0
0 0 0 0 0 0 0 0 0 0 0 0 0 0 0 0 0 0 0 0 0 0 0 0 0 0 0 0 2 4 3 1 0 0 1 2 2 1 2 2 2 1 0
0 0 0 0 0 0 0 0 0 0 0 0 0 0 0 0 0 0 0 0 0 0 0 0 0 0 0 0 1 3 3 1 1 1 0 1 1 1 1 1 1 1 0
0 0 0 0 0 0 0 0 0 0 0 0 0 0 0 0 0 0 0 0 0 0 0 0 0 0 0 0 0 1 1 1 1 2 1 1 0 0 0 0 0 0 0
0 0 0 0 0 0 0 0 0 0 0 0 0 0 0 0 0 0 0 0 0 0 0 0 0 0 0 0 0 0 0 0 1 2 2 1 1 1 0 0 1 1 0
0 0 0 0 0 0 0 0 0 0 0 0 0 0 0 0 0 0 0 0 0 0 0 0 0 0 0 0 0 0 0 0 0 1 1 1 1 1 0 1 2 2 1
0 0 0 0 0 0 0 0 0 0 0 0 0 0 0 0 0 0 0 0 0 0 0 0 0 0 0 0 0 0 0 0 0 0 0 0 1 1 0 1 2 2 2
0 0 0 0 0 0 0 0 0 0 0 0 0 0 0 0 0 0 0 0 0 0 0 0 0 0 0 0 0 0 0 0 0 0 0 0 0 0 0 0 1 2 2
0 0 0 0 0 0 0 0 0 0 0 0 0 0 0 0 0 0 0 0 0 0 0 0 0 0 0 0 0 0 0 0 0 0 0 0 0 0 0 0 0 1 2
0 0 0 0 0 0 0 0 0 0 0 0 0 0 0 0 0 0 0 0 0 0 0 0 0 0 0 0 0 0 0 0 0 0 0 0 0 0 0 0 0 0 1
0 0 0 0 0 0 0 0 0 0 0 0 0 0 0 0 0 0 0 0 0 0 0 0 0 0 0 0 0 0 0 0 0 0 0 0 0 0 0 0 0 0 0
0 0 0 0 0 0 0 0 0 0 0 0 0 0 0 0 0 0 0 0 0 0 0 0 0 0 0 0 0 0 0 0 0 0 0 0 0 0 0 0 0 0 0
0 0 0 0 0 0 0 0 0 0 0 0 0 0 0 0 0 0 0 0 0 0 0 0 0 0 0 0 0 0 0 0 0 0 0 0 0 0 0 0 0 0 0
0 0 0 0 0 0 0 0 0 0 0 0 0 0 0 0 0 0 0 0 0 0 0 0 0 0 0 0 0 0 0 0 0 0 0 0 0 0 0 0 0 0 0
0 0 0 0 0 0 0 0 0 0 0 0 0 0 0 0 0 0 0 0 0 0 0 0 0 0 0 0 0 0 0 0 0 0 0 0 0 0 0 0 0 0 0
0 0 0 0 0 0 0 0 0 0 0 0 0 0 0 0 0 0 0 0 0 0 0 0 0 0 0 0 0 0 0 0 0 0 0 0 0 0 0 0 0 0 0
0 0 0 0 0 0 0 0 0 0 0 0 0 0 0 0 0 0 0 0 0 0 0 0 0 0 0 0 0 0 0 0 0 0 0 0 0 0 0 0 0 0 0
0 0 0 0 0 0 0 0 0 0 0 0 0 0 0 0 0 0 0 0 0 0 0 0 0 0 0 0 0 0 0 0 0 0 0 0 0 0 0 0 0 0 0
0 0 0 0 0 0 0 0 0 0 0 0 0 0 0 0 0 0 0 0 0 0 0 0 0 0 0 0 0 0 0 0 0 0 0 0 0 0 0 0 0 0 0
0 0 0 0 0 0 0 0 0 0 0 0 0 0 0 0 0 0 0 0 0 0 0 0 0 0 0 0 0 0 0 0 0 0 0 0 0 0 0 0 0 0 0
0 0 0 0 0 0 0 0 0 0 0 0 0 0 0 0 0 0 0 0 0 0 0 0 0 0 0 0 0 0 0 0 0 0 0 0 0 0 0 0 0 0 0
0 0 0 0 0 0 0 0 0 0 0 0 0 0 0 0 0 0 0 0 0 0 0 0 0 0 0 0 0 0 0 0 0 0 0 0 0 0 0 0 0 0 0
Wind_Speed
2 2 2 2 2 2 2 2 1 1 1 2 2 2 1 2 1 1 1 4 4 3 2 1 1 1 1 2 2 2 2 3 3 3 3 4 3 4 3 3 3 3 2
2 2 2 2 2 2 2 2 2 1 1 1 2 2 2 1 1 1 1 2 4 4 3 3 2 2 2 2 3 2 2 3 4 3 3 3 3 4 3 3 3 2 2
3 2 1 2 2 2 2 2 1 1 1 1 1 1 1 1 2 1 1 1 1 3 4 3 3 3 2 1 2 3 3 2 3 3 4 4 4 3 3 3 3 2 2
3 2 2 2 2 2 2 1 1 1 1 1 1 1 1 1 2 1 1 1 1 2 2 4 4 4 3 2 2 2 2 2 2 2 3 4 4 4 3 3 3 2 2
3 3 2 2 2 1 1 2 1 1 1 1 1 1 1 1 1 1 1 1 2 2 2 2 3 4 4 3 3 2 1 1 2 2 3 3 4 4 4 4 3 3 2
4 3 2 2 2 1 1 2 1 1 1 1 2 1 1 1 1 1 1 1 1 2 2 2 2 1 3 3 4 3 2 2 1 1 1 2 3 4 4 4 4 4 3
4 3 2 2 2 1 2 2 2 1 1 1 1 1 1 1 1 1 1 1 1 1 2 2 2 2 1 1 2 2 2 2 2 2 2 2 2 3 4 5 5 5 5
4 3 3 2 2 2 2 2 2 1 0 1 1 2 2 2 1 1 1 1 1 1 1 2 2 2 2 1 2 3 3 3 3 2 3 3 3 4 5 4 5 6 6
4 4 3 3 2 2 2 2 2 2 1 1 1 2 2 2 1 1 1 1 1 1 1 1 2 2 2 2 1 2 4 4 4 3 3 4 4 4 4 5 5 5 5
4 4 4 3 3 2 3 2 2 3 2 2 1 2 2 2 2 2 1 1 1 2 2 2 2 2 2 2 2 3 4 4 4 4 4 4 4 5 5 4 4 5 5
3 4 4 4 3 3 3 3 3 3 2 2 2 1 2 2 3 3 3 2 1 1 2 2 2 2 2 2 2 2 3 4 5 5 5 6 5 5 5 5 5 5 5
2 4 4 4 3 3 3 3 3 4 3 3 2 2 2 2 2 3 4 3 3 2 2 2 2 2 2 2 2 4 4 4 5 5 6 6 6 6 6 6 6 6 5
3 4 4 4 3 4 4 4 3 4 4 3 3 3 3 3 3 3 4 3 4 3 2 2 1 1 1 2 2 4 3 4 5 6 6 6 6 6 6 7 7 6 6
3 4 4 4 4 4 4 4 3 4 3 4 4 4 3 3 3 3 3 3 3 3 4 3 2 1 1 2 3 4 3 4 6 6 7 7 6 6 6 7 6 6 6
4 5 5 5 5 4 4 4 3 4 3 4 4 4 4 3 3 3 4 4 4 4 4 3 2 2 2 2 3 3 4 5 6 7 7 7 7 6 7 7 6 6 6
4 5 5 5 5 4 4 4 4 3 4 4 3 4 4 3 3 3 4 4 4 5 5 3 3 3 3 3 4 5 5 6 7 7 8 8 7 7 7 6 6 6 6
4 4 5 5 5 4 4 4 3 4 4 4 4 5 5 5 4 4 4 4 4 5 6 5 4 3 5 5 4 5 5 5 5 7 8 8 8 8 7 6 6 6 6
4 4 4 4 5 4 4 4 4 4 4 4 5 5 5 4 5 5 4 5 5 5 6 7 5 4 6 5 5 6 5 5 5 6 8 8 8 8 7 8 8 7 7
4 4 4 4 4 4 4 4 4 4 5 5 5 5 5 5 6 5 5 6 5 5 5 6 6 5 4 4 5 5 6 5 5 6 7 8 8 9 9 9 8 8 8
3 3 4 4 4 4 4 4 4 5 5 5 5 5 6 6 6 6 6 6 6 6 6 6 6 5 5 4 4 4 5 4 5 5 6 6 7 9 9 9 9 8 9
4 4 4 4 4 4 4 5 5 5 5 5 5 6 6 7 8 7 6 6 6 6 5 6 6 5 5 4 4 4 5 5 5 4 4 4 5 5 5 7 8 9 10
4 4 4 4 4 4 6 7 6 5 5 6 6 6 6 7 8 9 10 10 9 8 7 6 6 7 7 6 5 5 5 5 5 3 4 5 4 5 5 5 7 9 9
4 4 4 4 5 5 8 8 8 6 6 6 6 6 5 5 7 6 8 9 10 12 12 9 9 9 8 7 6 6 6 7 7 4 4 6 5 6 5 6 9 10 10
4 4 5 5 5 6 8 8 9 7 6 6 6 6 6 6 6 6 7 7 7 8 9 9 9 9 8 7 7 8 8 7 7 5 5 6 5 5 5 5 8 10 9
5 5 5 5 5 6 8 9 8 5 5 6 6 6 6 6 8 9 7 7 7 7 8 10 11 11 11 11 9 6 6 6 6 6 5 5 5 5 5 5 5 7 8
5 5 5 5 6 6 8 9 8 4 5 5 5 6 7 8 9 9 7 7 7 7 7 7 8 9 9 9 11 9 7 7 6 6 5 5 4 3 4 3 3 4 5
Wind_Direction
16 10 1 4 2 350 349 349 342 0 13 18 17 23 20 16 4 347 47 26 357 341 337 314 275 232 199 187 169 158 167 163 157 150 149 150 150 143 135 131 125 117 120
2 352 355 353 358 348 339 326 334 333 350 359 13 13 2 5 356 348 352 38 19 355 338 334 316 269 227 205 192 184 178 175 167 165 163 161 156 154 152 143 136 132 130
356 340 344 347 350 341 330 320 338 316 326 337 4 355 357 357 350 351 344 348 11 16 5 349 335 325 290 256 221 205 199 181 178 176 175 169 167 168 169 167 163 169 174
359 342 336 342 341 334 322 311 329 306 300 302 307 323 329 339 348 344 354 359 350 339 4 3 340 330 320 302 274 235 199 186 167 179 184 184 186 182 179 176 178 189 194
355 352 338 335 327 321 318 315 323 305 292 304 301 302 322 323 336 340 8 7 357 343 331 350 340 336 331 311 293 275 251 201 183 167 190 193 193 196 197 196 195 200 208
353 348 343 333 326 320 322 320 304 307 305 308 297 294 308 311 322 347 1 6 1 356 345 335 319 338 335 320 301 288 282 247 209 188 193 211 210 210 210 211 215 217 210
350 342 343 341 328 322 314 313 301 286 326 333 291 281 256 237 298 337 0 347 357 5 360 346 334 331 327 358 332 322 321 297 270 256 245 253 240 230 224 226 224 218 212
349 341 339 332 330 313 305 302 305 272 321 326 286 271 262 215 206 278 320 328 326 340 2 353 341 341 333 318 6 360 342 326 305 280 254 246 254 240 233 231 230 221 216
346 344 336 328 322 312 296 295 292 274 247 246 294 283 264 257 304 222 234 279 306 312 327 336 331 336 333 326 330 16 1 337 315 297 276 255 252 250 246 238 234 224 215
342 341 335 332 323 308 301 296 291 280 252 237 250 275 291 305 269 264 207 216 295 310 318 315 316 316 315 315 334 356 1 344 318 298 286 274 262 252 252 251 239 227 224
336 339 334 328 324 309 297 294 286 284 257 245 243 260 258 262 259 259 258 258 267 283 295 291 295 302 305 299 298 345 353 336 316 304 295 281 273 263 255 252 246 238 235
325 334 329 323 316 312 305 293 280 275 263 254 245 242 248 244 240 252 260 266 271 276 280 274 282 292 296 297 326 352 340 326 313 306 298 289 279 275 267 257 252 244 242
319 323 319 314 311 307 304 298 281 272 258 249 246 249 253 258 258 255 257 263 271 279 263 248 256 279 295 293 314 338 320 326 322 314 305 299 291 280 277 270 261 253 250
311 313 309 308 306 300 299 296 282 270 258 249 243 243 246 252 257 249 252 256 264 266 254 247 235 256 282 287 320 311 296 313 311 308 307 304 301 294 283 276 266 259 258
310 310 309 308 304 301 300 294 279 273 264 257 249 241 240 243 242 255 251 246 249 255 258 248 239 237 278 281 303 291 289 298 294 295 297 299 298 295 286 277 269 262 261
309 305 307 309 307 308 303 291 285 280 269 263 257 251 246 242 240 241 246 250 248 251 259 267 266 280 287 281 289 286 282 287 277 283 286 287 289 286 281 276 271 267 265
306 303 304 304 303 305 302 293 291 289 276 270 266 259 254 250 244 241 238 242 244 244 252 264 269 272 274 275 278 278 280 280 273 272 276 276 278 277 272 271 272 268 268
300 300 299 299 300 301 298 294 293 289 286 280 272 265 261 254 248 246 240 238 241 245 250 258 264 264 266 272 277 277 277 279 277 275 271 270 269 268 268 268 267 263 263
300 301 299 298 301 302 301 298 293 287 284 282 279 274 270 264 258 254 247 244 243 245 249 254 260 263 265 266 274 274 275 273 278 275 267 263 263 264 265 263 261 260 259
305 305 303 302 302 302 299 298 297 292 286 286 284 279 273 268 266 265 259 251 249 247 246 249 255 257 258 261 263 267 270 271 274 274 268 267 263 262 258 258 257 256 253
306 302 301 301 299 296 297 299 295 291 287 286 282 279 277 276 275 270 265 257 249 247 247 249 253 256 254 250 251 260 266 276 275 268 276 270 264 258 252 250 252 252 251
303 301 299 298 296 296 305 301 299 289 283 281 282 282 278 271 272 270 268 264 255 250 249 251 254 251 252 253 255 256 263 268 269 258 272 276 267 262 259 253 252 253 249
298 296 297 296 293 297 305 304 301 291 285 284 283 281 277 276 277 272 271 269 263 258 254 252 252 252 254 251 252 256 257 260 265 271 271 271 263 264 263 257 256 252 246
293 293 294 294 293 298 306 306 304 289 284 283 283 281 279 279 276 281 279 274 270 264 259 254 252 255 257 257 251 254 258 267 273 262 253 264 264 265 269 262 252 246 243
292 292 292 293 293 298 307 309 305 292 287 286 285 283 282 281 280 280 277 275 277 278 272 262 260 262 262 259 255 249 248 252 260 260 245 253 261 273 270 259 251 247 244
287 290 289 290 292 296 307 307 303 290 290 291 290 287 282 285 282 282 275 274 275 282 284 274 264 259 258 254 248 242 240 244 255 260 239 244 254 262 268 251 249 255 253